Weather History for Spirit of St Louis, MO

Change the Weather History Date:

Saturday, March 30, 2013

  Actual Average Record
Temperature  
Mean Temperature 44 °F -  
Max Temperature 54 °F 60 °F 82 °F (2012)
Min Temperature 33 °F 37 °F 21 °F (2014)
Degree Days  
Heating Degree Days 22    
Moisture  
Dew Point 38 °F    
Average Humidity 90    
Maximum Humidity 100    
Minimum Humidity 59    
Precipitation  
Precipitation 0.10 in - - ()
Sea Level Pressure  
Sea Level Pressure 30.10 in    
Wind  
Wind Speed 1 mph (SE)    
Max Wind Speed 12 mph    
Max Gust Speed 18 mph    
Visibility 3 miles    
Events Fog , Rain    
Averages and records for this station are not official NWS values.
T = Trace of Precipitation, MM = Missing Value Source: NWS Daily Summary

Daily Weather History Graph

Daily Weather History Graph

Search for Another Location

Airport:

Trip Planner

Search our weather history database for the weather conditions in past years. The results will help you decide how hot, cold, wet, or windy it might be!

Date:

Astronomy

Mar. 30, 2013 Rise Set
Actual Time 6:50 AM CDT 7:24 PM CDT
Civil Twilight 6:23 AM CDT 7:51 PM CDT
Nautical Twilight 5:51 AM CDT 8:22 PM CDT
Astronomical Twilight 5:19 AM CDT 8:55 PM CDT
Moon 11:28 PM CDT (3/30) 8:48 AM CDT (3/30)
Length of Visible Light 13h 27m
Length of Day
12h 34m
Waning Gibbous, 86% of the Moon is Illuminated
Mar 30
Waning Gibbous
Apr 2
Last Quarter
Apr 10
New
Apr 18
First Quarter
Apr 25
Full

Hourly Weather History & Observations

Time (CDT) Temp. Dew Point Humidity Pressure Visibility Wind Dir Wind Speed Gust Speed Precip Events Conditions
12:54 AM 39.0 °F 36.0 °F 89% 30.20 in 7.0 mi Calm Calm - N/A   Clear
1:52 AM 37.4 °F 35.6 °F 93% 30.19 in 1.8 mi Calm Calm - N/A   Clear
1:54 AM 37.0 °F 35.1 °F 93% 30.19 in 1.0 mi Calm Calm - N/A   Clear
2:01 AM 37.4 °F 35.6 °F 93% 30.19 in 0.8 mi Calm Calm - N/A   Clear
2:05 AM 37.4 °F 35.6 °F 93% 30.19 in 2.0 mi Calm Calm - N/A   Clear
2:13 AM 37.4 °F 35.6 °F 93% 30.19 in 3.0 mi Calm Calm - N/A   Clear
2:18 AM 37.4 °F 35.6 °F 93% 30.19 in 1.8 mi Calm Calm - N/A   Clear
2:30 AM 37.4 °F 35.6 °F 93% 30.19 in 3.0 mi Calm Calm - N/A   Clear
2:37 AM 37.4 °F 35.6 °F 93% 30.18 in 1.8 mi Calm Calm - N/A   Clear
2:54 AM 37.0 °F 35.1 °F 93% 30.19 in 2.5 mi Calm Calm - N/A   Clear
3:06 AM 37.4 °F 35.6 °F 93% 30.18 in 0.8 mi Calm Calm - N/A   Clear
3:20 AM 37.4 °F 35.6 °F 93% 30.18 in 2.0 mi Calm Calm - N/A   Clear
3:27 AM 35.6 °F 33.8 °F 93% 30.19 in 4.0 mi Calm Calm - N/A   Clear
3:39 AM 37.4 °F 35.6 °F 93% 30.19 in 1.5 mi Calm Calm - N/A   Clear
3:50 AM 35.6 °F 33.8 °F 93% 30.17 in 0.8 mi Calm Calm - N/A   Clear
3:54 AM 36.0 °F 34.0 °F 93% 30.18 in 0.8 mi Calm Calm - N/A   Clear
4:01 AM 35.6 °F 35.6 °F 100% 30.17 in 1.5 mi Calm Calm - N/A   Clear
4:23 AM 35.6 °F 35.6 °F 100% 30.15 in 2.0 mi Calm Calm - N/A   Clear
4:51 AM 35.6 °F 33.8 °F 93% 30.15 in 0.8 mi Calm Calm - N/A   Clear
4:54 AM 35.1 °F 33.1 °F 92% 30.16 in 0.8 mi Calm Calm - N/A   Clear
5:05 AM 35.6 °F 33.8 °F 93% 30.15 in 0.5 mi Calm Calm - N/A Fog Fog
5:25 AM 35.6 °F 33.8 °F 93% 30.15 in 1.2 mi Calm Calm - N/A   Partly Cloudy
5:28 AM 35.6 °F 33.8 °F 93% 30.15 in 3.0 mi Calm Calm - N/A   Clear
5:39 AM 33.8 °F 33.8 °F 100% 30.15 in 1.2 mi Calm Calm - N/A   Clear
5:42 AM 33.8 °F 33.8 °F 100% 30.15 in 0.5 mi Calm Calm - N/A Fog Fog
5:47 AM 33.8 °F 32.0 °F 93% 30.15 in 3.0 mi Calm Calm - N/A   Partly Cloudy
5:54 AM 34.0 °F 33.1 °F 96% 30.15 in 3.0 mi Calm Calm - N/A   Partly Cloudy
6:26 AM 33.8 °F 33.8 °F 100% 30.14 in 1.5 mi Calm Calm - N/A   Mostly Cloudy
6:54 AM 34.0 °F 33.1 °F 96% 30.14 in 0.5 mi Calm Calm - N/A Fog Fog
7:11 AM 33.8 °F 33.8 °F 100% 30.14 in 0.5 mi Calm Calm - N/A Fog Fog
7:14 AM 33.8 °F 33.8 °F 100% 30.14 in 0.2 mi Calm Calm - N/A Fog Fog
7:43 AM 35.6 °F 33.8 °F 93% 30.15 in 0.2 mi Calm Calm - N/A Fog Fog
7:51 AM 35.6 °F 33.8 °F 93% 30.15 in 0.2 mi Calm Calm - N/A Fog Fog
7:54 AM 36.0 °F 34.0 °F 93% 30.16 in 0.2 mi Calm Calm - N/A Fog Fog
8:09 AM 39.2 °F 37.4 °F 93% 30.15 in 1.0 mi Calm Calm - N/A   Mostly Cloudy
8:29 AM 39.2 °F 37.4 °F 93% 30.14 in 0.5 mi Calm Calm - N/A Fog Fog
8:54 AM 42.1 °F 41.0 °F 96% 30.15 in 2.0 mi Calm Calm - N/A   Haze
9:54 AM 48.0 °F 43.0 °F 83% 30.13 in 4.0 mi SSE 4.6 mph - N/A   Haze
10:54 AM 52.0 °F 39.9 °F 63% 30.11 in 10.0 mi SE 11.5 mph 18.4 mph N/A   Overcast
11:54 AM 53.1 °F 42.1 °F 66% 30.10 in 10.0 mi Variable 6.9 mph - N/A   Overcast
12:54 PM 54.0 °F 39.9 °F 59% 30.06 in 10.0 mi SE 11.5 mph 16.1 mph N/A   Mostly Cloudy
1:54 PM 54.0 °F 41.0 °F 62% 30.05 in 10.0 mi South 4.6 mph - N/A   Overcast
2:54 PM 54.0 °F 42.1 °F 64% 30.02 in 10.0 mi ESE 4.6 mph - N/A   Overcast
3:54 PM 51.1 °F 45.0 °F 80% 30.00 in 7.0 mi ESE 4.6 mph - 0.03 in Rain Light Rain
4:54 PM 50.0 °F 46.0 °F 86% 29.99 in 3.0 mi Calm Calm - 0.05 in Rain Light Rain
5:54 PM 50.0 °F 46.0 °F 86% 29.97 in 4.0 mi East 3.5 mph - 0.00 in   Overcast
6:54 PM 48.9 °F 46.0 °F 90% 29.95 in 5.0 mi ESE 4.6 mph - 0.02 in   Overcast
7:54 PM 48.9 °F 46.0 °F 90% 29.94 in 5.0 mi Calm Calm - N/A   Overcast
8:41 PM 48.2 °F 44.6 °F 87% 29.94 in 5.0 mi Calm Calm - 0.00 in   Overcast
8:54 PM 48.0 °F 45.0 °F 89% 29.95 in 5.0 mi East 3.5 mph - 0.00 in   Overcast
9:15 PM 48.2 °F 44.6 °F 87% 29.94 in 5.0 mi Calm Calm - N/A   Overcast
9:54 PM 48.0 °F 46.0 °F 93% 29.94 in 4.0 mi Calm Calm - N/A   Overcast
10:21 PM 48.2 °F 46.4 °F 93% 29.94 in 4.0 mi Calm Calm - N/A   Overcast
10:40 PM 48.2 °F 44.6 °F 87% 29.93 in 4.0 mi Calm Calm - N/A   Overcast
10:54 PM 48.0 °F 45.0 °F 89% 29.94 in 4.0 mi Calm Calm - N/A   Overcast
11:06 PM 48.2 °F 46.4 °F 93% 29.93 in 4.0 mi Calm Calm - N/A   Overcast
11:24 PM 46.4 °F 44.6 °F 93% 29.93 in 2.0 mi Calm Calm - N/A   Overcast
11:54 PM 46.9 °F 45.0 °F 93% 29.92 in 2.5 mi Calm Calm - N/A   Overcast